| time (UTC) | temp F | wind direction | speed knots | gust knots | rain 1hr in | rain 24hr in | rain mn in | humidity % | barometer mb |
| 20260906220049 | 97 | 78 | 5.2 | 12.2 | 0.00 | 0.00 | 0.00 | 33 | 1012.4 |
| 20260906214601 | 95 | 87 | 5.2 | 10.4 | 0.00 | 0.00 | 0.00 | 35 | 1012.4 |
| 20260906213059 | 97 | 98 | 3.5 | 12.2 | 0.00 | 0.00 | 0.00 | 33 | 1012.7 |
| 20260906211554 | 97 | 5 | 3.5 | 11.3 | 0.00 | 0.00 | 0.00 | 33 | 1012.8 |
| 20260906210111 | 98 | 120 | 3.5 | 10.4 | 0.00 | 0.00 | 0.00 | 33 | 1012.9 |
| 20260906204612 | 98 | 55 | 4.3 | 14.8 | 0.00 | 0.00 | 0.00 | 34 | 1013.2 |
| 20260906203053 | 98 | 44 | 6.1 | 13.0 | 0.00 | 0.00 | 0.00 | 34 | 1013.3 |
| 20260906201555 | 97 | 67 | 5.2 | 14.8 | 0.00 | 0.00 | 0.00 | 35 | 1013.5 |
| 20260906200051 | 96 | 111 | 6.1 | 12.2 | 0.00 | 0.00 | 0.00 | 36 | 1013.8 |
| 20260906194546 | 96 | 112 | 3.5 | 11.3 | 0.00 | 0.00 | 0.00 | 36 | 1013.9 |
| 20260906193053 | 96 | 132 | 7.0 | 13.9 | 0.00 | 0.00 | 0.00 | 37 | 1014.0 |
| 20260906191602 | 95 | 13 | 3.5 | 8.7 | 0.00 | 0.00 | 0.00 | 39 | 1014.3 |
| 20260906190057 | 95 | 30 | 3.5 | 10.4 | 0.00 | 0.00 | 0.00 | 38 | 1014.4 |
| 20260906184554 | 94 | 104 | 2.6 | 8.7 | 0.00 | 0.00 | 0.00 | 39 | 1014.6 |
| 20260906183051 | 94 | 93 | 2.6 | 10.4 | 0.00 | 0.00 | 0.00 | 38 | 1014.9 |
| 20260906181558 | 94 | 71 | 3.5 | 11.3 | 0.00 | 0.00 | 0.00 | 38 | 1015.1 |
| 20260906180106 | 93 | 349 | 1.7 | 7.8 | 0.00 | 0.00 | 0.00 | 40 | 1015.3 |
| 20260906174603 | 94 | 336 | 3.5 | 11.3 | 0.00 | 0.00 | 0.00 | 40 | 1015.6 |
| 20260906173047 | 93 | 134 | 4.3 | 12.2 | 0.00 | 0.00 | 0.00 | 41 | 1015.8 |
| 20260906171546 | 93 | 108 | 6.1 | 11.3 | 0.00 | 0.00 | 0.00 | 40 | 1016.0 |
| 20260906170054 | 94 | 128 | 6.1 | 11.3 | 0.00 | 0.00 | 0.00 | 40 | 1016.2 |
| 20260906164550 | 93 | 13 | 1.7 | 11.3 | 0.00 | 0.00 | 0.00 | 41 | 1016.2 |
| 20260906163053 | 93 | 87 | 2.6 | 8.7 | 0.00 | 0.00 | 0.00 | 42 | 1016.2 |
| 20260906161556 | 93 | 30 | 2.6 | 8.7 | 0.00 | 0.00 | 0.00 | 42 | 1016.3 |
| 20260906160054 | 93 | 59 | 1.7 | 7.0 | 0.00 | 0.00 | 0.00 | 42 | 1016.2 |
| 20260906154552 | 91 | 263 | 0.9 | 4.3 | 0.00 | 0.00 | 0.00 | 45 | 1016.2 |
| 20260906153110 | 89 | 275 | 2.6 | 6.1 | 0.00 | 0.00 | 0.00 | 49 | 1016.1 |
| 20260906151602 | 88 | 274 | 1.7 | 7.0 | 0.00 | 0.00 | 0.00 | 51 | 1016.0 |
| 20260906150049 | 88 | 297 | 1.7 | 6.1 | 0.00 | 0.00 | 0.00 | 53 | 1016.0 |
| 20260906144559 | 86 | 273 | 1.7 | 6.1 | 0.00 | 0.00 | 0.00 | 56 | 1015.9 |
| 20260906143054 | 84 | 259 | 1.7 | 8.7 | 0.00 | 0.00 | 0.00 | 58 | 1015.9 |
| 20260906141554 | 83 | 247 | 2.6 | 6.1 | 0.00 | 0.00 | 0.00 | 60 | 1015.9 |
| 20260906140045 | 81 | 259 | 3.5 | 6.1 | 0.00 | 0.00 | 0.00 | 63 | 1015.9 |
| 20260906134606 | 80 | 203 | 3.5 | 7.8 | 0.00 | 0.00 | 0.00 | 65 | 1015.7 |
| 20260906133056 | 78 | 231 | 2.6 | 6.1 | 0.00 | 0.00 | 0.00 | 68 | 1015.6 |
| 20260906131551 | 76 | 213 | 2.6 | 6.1 | 0.00 | 0.00 | 0.00 | 69 | 1015.4 |
| 20260906130047 | 75 | 182 | 3.5 | 6.1 | 0.00 | 0.00 | 0.00 | 71 | 1015.1 |
| 20260906124557 | 74 | 214 | 3.5 | 6.1 | 0.00 | 0.00 | 0.00 | 73 | 1015.0 |
| 20260906123058 | 74 | 225 | 2.6 | 7.0 | 0.00 | 0.00 | 0.00 | 73 | 1014.8 |
| 20260906121548 | 74 | 221 | 2.6 | 5.2 | 0.00 | 0.00 | 0.00 | 73 | 1014.7 |
| 20260906120050 | 74 | 201 | 3.5 | 6.1 | 0.00 | 0.00 | 0.00 | 72 | 1014.4 |
| 20260906114559 | 74 | 207 | 2.6 | 6.1 | 0.00 | 0.00 | 0.00 | 72 | 1014.4 |
| 20260906113100 | 74 | 198 | 2.6 | 5.2 | 0.00 | 0.00 | 0.00 | 71 | 1014.3 |
| 20260906111550 | 75 | 186 | 3.5 | 6.1 | 0.00 | 0.00 | 0.00 | 71 | 1014.3 |
| 20260906110056 | 75 | 198 | 2.6 | 4.3 | 0.00 | 0.00 | 0.00 | 70 | 1014.1 |
| 20260906104554 | 75 | 169 | 2.6 | 6.1 | 0.00 | 0.00 | 0.00 | 70 | 1014.1 |
| 20260906103102 | 75 | 175 | 2.6 | 6.1 | 0.00 | 0.00 | 0.00 | 69 | 1014.1 |
| 20260906101556 | 76 | 187 | 2.6 | 6.1 | 0.00 | 0.00 | 0.00 | 69 | 1014.0 |
| 20260906100059 | 76 | 180 | 3.5 | 7.0 | 0.00 | 0.00 | 0.00 | 68 | 1014.0 |
| 20260906094550 | 76 | 171 | 3.5 | 6.1 | 0.00 | 0.00 | 0.00 | 67 | 1014.0 |
| 20260906093051 | 76 | 227 | 3.5 | 6.1 | 0.00 | 0.00 | 0.00 | 67 | 1013.9 |
| 20260906091547 | 76 | 183 | 3.5 | 6.1 | 0.00 | 0.00 | 0.00 | 66 | 1013.8 |
| 20260906090111 | 76 | 219 | 3.5 | 7.0 | 0.00 | 0.00 | 0.00 | 65 | 1013.6 |
| 20260906084550 | 76 | 213 | 2.6 | 5.2 | 0.00 | 0.00 | 0.00 | 64 | 1013.8 |
| 20260906083048 | 76 | 192 | 2.6 | 5.2 | 0.00 | 0.00 | 0.00 | 64 | 1013.6 |
| 20260906081552 | 77 | 174 | 3.5 | 7.8 | 0.00 | 0.00 | 0.00 | 63 | 1013.6 |
| 20260906080110 | 78 | 196 | 2.6 | 8.7 | 0.00 | 0.00 | 0.00 | 63 | 1013.6 |
| 20260906074604 | 78 | 163 | 2.6 | 7.8 | 0.00 | 0.00 | 0.00 | 62 | 1013.8 |
| 20260906073103 | 79 | 147 | 3.5 | 9.6 | 0.00 | 0.00 | 0.00 | 60 | 1013.9 |
| 20260906071558 | 80 | 161 | 5.2 | 9.6 | 0.00 | 0.00 | 0.00 | 60 | 1014.0 |
| 20260906070051 | 80 | 136 | 5.2 | 9.6 | 0.00 | 0.00 | 0.00 | 60 | 1014.0 |
| 20260906064556 | 81 | 161 | 5.2 | 11.3 | 0.00 | 0.00 | 0.00 | 58 | 1014.2 |
| 20260906063050 | 81 | 159 | 5.2 | 13.0 | 0.00 | 0.00 | 0.00 | 58 | 1014.3 |
| 20260906061556 | 81 | 171 | 4.3 | 7.8 | 0.00 | 0.00 | 0.00 | 56 | 1014.5 |
| 20260906060052 | 81 | 161 | 3.5 | 7.8 | 0.00 | 0.00 | 0.00 | 54 | 1014.6 |
| 20260906054549 | 82 | 95 | 2.6 | 7.0 | 0.00 | 0.00 | 0.00 | 52 | 1014.7 |
| 20260906053052 | 82 | 136 | 3.5 | 7.0 | 0.00 | 0.00 | 0.00 | 51 | 1014.4 |
| 20260906051558 | 83 | 167 | 2.6 | 7.8 | 0.00 | 0.00 | 0.00 | 51 | 1014.4 |
| 20260906050109 | 83 | 152 | 3.5 | 12.2 | 0.00 | 0.00 | 0.00 | 50 | 1014.4 |
| 20260906044554 | 83 | 117 | 4.3 | 8.7 | 0.00 | 0.00 | 0.00 | 50 | 1014.5 |
| 20260906043057 | 83 | 148 | 2.6 | 7.0 | 0.00 | 0.00 | 0.00 | 49 | 1014.5 |
| 20260906041545 | 83 | 109 | 3.5 | 7.0 | 0.00 | 0.00 | 0.00 | 49 | 1014.5 |
| 20260906040048 | 83 | 121 | 3.5 | 7.8 | 0.00 | 0.00 | 0.00 | 48 | 1014.3 |
| 20260906034610 | 84 | 109 | 3.5 | 7.0 | 0.00 | 0.00 | 0.00 | 48 | 1014.1 |
| 20260906033049 | 84 | 105 | 3.5 | 7.8 | 0.00 | 0.00 | 0.00 | 47 | 1014.2 |
| 20260906031550 | 84 | 98 | 3.5 | 7.0 | 0.00 | 0.00 | 0.00 | 47 | 1014.0 |
| 20260906030057 | 85 | 111 | 3.5 | 7.0 | 0.00 | 0.00 | 0.00 | 46 | 1013.9 |
| 20260906024549 | 85 | 117 | 3.5 | 6.1 | 0.00 | 0.00 | 0.00 | 46 | 1013.7 |
| 20260906023056 | 86 | 117 | 3.5 | 6.1 | 0.00 | 0.00 | 0.00 | 45 | 1013.5 |
| 20260906021553 | 87 | 132 | 4.3 | 7.0 | 0.00 | 0.00 | 0.00 | 44 | 1013.4 |
| 20260906020058 | 87 | 104 | 4.3 | 8.7 | 0.00 | 0.00 | 0.00 | 43 | 1013.2 |
| 20260906014547 | 88 | 116 | 5.2 | 9.6 | 0.00 | 0.00 | 0.00 | 42 | 1013.2 |
| 20260906013104 | 89 | 79 | 6.1 | 9.6 | 0.00 | 0.00 | 0.00 | 41 | 1012.8 |
| 20260906011548 | 90 | 107 | 4.3 | 9.6 | 0.00 | 0.00 | 0.00 | 40 | 1012.6 |
| 20260906010053 | 90 | 121 | 5.2 | 10.4 | 0.00 | 0.00 | 0.00 | 39 | 1012.4 |
| 20260906004547 | 91 | 118 | 5.2 | 9.6 | 0.00 | 0.00 | 0.00 | 38 | 1012.3 |
| 20260906003048 | 92 | 80 | 5.2 | 13.9 | 0.00 | 0.00 | 0.00 | 37 | 1012.3 |
| 20260906001557 | 93 | 118 | 7.0 | 13.0 | 0.00 | 0.00 | 0.00 | 37 | 1012.2 |
| 20260905234558 | 95 | 130 | 6.1 | 11.3 | 0.00 | 0.00 | 0.00 | 35 | 1012.0 |
| 20260905233056 | 95 | 96 | 6.1 | 12.2 | 0.00 | 0.00 | 0.00 | 35 | 1012.0 |
| 20260905231559 | 96 | 113 | 3.5 | 11.3 | 0.00 | 0.00 | 0.00 | 35 | 1011.7 |
| 20260905230059 | 95 | 117 | 4.3 | 9.6 | 0.00 | 0.00 | 0.00 | 36 | 1011.8 |
| 20260905224549 | 94 | 127 | 3.5 | 7.8 | 0.00 | 0.00 | 0.00 | 37 | 1011.9 |
| 20260905223058 | 95 | 126 | 4.3 | 11.3 | 0.00 | 0.00 | 0.00 | 36 | 1011.9 |
| 20260905221556 | 95 | 0 | 2.6 | 14.8 | 0.00 | 0.00 | 0.00 | 36 | 1012.0 |